Flag for U.S.A. Weather past 2 weeks in Carson City, Nevada, U.S.A.

Now
40 °F

Overcast.


Feels Like: 37 °F
Forecast: 37 / 51 °F
Wind: 5 mph from Southwest

Location: Reno Tahoe International Airport

Current Time: Apr 25, 2015 at 6:25:17 AM

Latest Report: Apr 25, 2015 at 5:55 AM


Visibility: 10 mi

Pressure: 29.72 "Hg

Humidity: 86%

Dew point: 36 °F

Location of Carson CityLocation

Historic Weather in Carson City — Graph

°F

Carson City temperature yesterday

Maximum temperature yesterday: 58 °F (at 2:55 PM)
Minimum temperature yesterday: 44 °F (at 1:55 AM)
Average temperature yesterday: 51 °F

Past Weeks' High & Low Weather Summary

 TemperatureHumidityPressure
High79 °F (Apr 20, 3:55 PM)86% (Apr 24, 3:55 AM)30.32 "Hg (Apr 24, 3:55 AM)
Low28 °F (Apr 15, 6:55 AM)5% (Apr 17, 5:55 PM)29.64 "Hg (Apr 23, 4:55 PM)
Average55 °F32%29.95 "Hg
* Reported Apr 10 4:55 AM — Apr 25 4:55 AM, Carson City, Weather by CustomWeather, © 2015

Note: Actual official high and low records may vary slightly from our data, if they occured in-between our weather recording intervals... More about our weather records

Advertising

Carson City weather history for previous 24 hours

 ConditionsComfort  
Time TempWeatherWind HumidityBarometerVisibility
4:55 AM
Sat, Apr 25
41 °FLight rain. Mostly cloudy.6 mph86%29.72 "Hg10 mi
3:55 AM43 °FLight rain. Mostly cloudy.6 mph82%29.70 "Hg10 mi
2:55 AM45 °FLight rain. Mostly cloudy.7 mph76%29.71 "Hg10 mi
1:55 AM46 °FMostly cloudy.9 mph66%29.72 "Hg10 mi
12:55 AM48 °FOvercast.8 mph54%29.73 "Hg10 mi
11:55 PM
Fri, Apr 24
47 °FOvercast.3 mph48%29.76 "Hg10 mi
10:55 PM47 °FPartly cloudy.8 mph48%29.78 "Hg10 mi
9:55 PM49 °FPartly cloudy.12 mph43%29.79 "Hg10 mi
8:55 PM50 °FPartly cloudy.7 mph41%29.80 "Hg10 mi
7:55 PM51 °FCloudy.13 mph42%29.82 "Hg10 mi
6:55 PM54 °FPartly sunny.10 mph38%29.80 "Hg10 mi
5:55 PM55 °FMore clouds than sun.7 mph35%29.79 "Hg10 mi
4:55 PM57 °FBroken clouds.15 mph33%29.86 "Hg10 mi
3:55 PM58 °FPartly sunny.14 mph35%29.77 "Hg10 mi
2:55 PM58 °FPartly sunny.17 mph30%29.78 "Hg10 mi
1:55 PM55 °FPartly sunny.18 mph28%29.79 "Hg10 mi
12:55 PM56 °FBroken clouds.15 mph27%29.78 "Hg10 mi
11:55 AM55 °FPartly sunny.22 mph31%29.77 "Hg10 mi
10:55 AM53 °FCloudy.18 mph48%29.75 "Hg10 mi
9:55 AM54 °FCloudy.14 mph45%29.73 "Hg10 mi
8:55 AM52 °FMostly cloudy.14 mph53%29.74 "Hg10 mi
7:55 AM49 °FBroken clouds.7 mph66%29.74 "Hg10 mi
6:55 AM47 °FPartly cloudy.3 mph74%29.73 "Hg10 mi
Weather by CustomWeather, © 2015

See weather overviewHow to use our weather pages